Location: Piotrkow Trybunalski
(51.4000°N, 19.6830°E)
Time: 10:32:08
(UTC+01:00)

Tiros 1 despin weight - Visible Passes

Search period start: 31 January 2023 00:00
Search period end: 10 February 2023 00:00
Orbit: 589 x 636 km, 48.2° (Epoch: 30 January)

Date Brightness Start Highest point End Pass type
(mag) Time Alt. Az. Time Alt. Az. Time Alt. Az.
31 Jan ? 17:10:23 10° SSW 17:14:06 25° SSE 17:17:49 10° E visible
31 Jan ? 18:50:37 10° WSW 18:55:01 52° S 18:55:08 52° SSE visible
31 Jan ? 20:31:48 10° W 20:32:05 12° W 20:32:05 12° W visible
01 Feb ? 17:24:29 10° SW 17:28:38 35° SSE 17:32:24 12° E visible
01 Feb ? 19:05:15 10° WSW 19:09:21 56° SSW 19:09:21 56° SSW visible
02 Feb ? 17:38:53 10° WSW 17:43:14 46° SSE 17:46:36 16° E visible
02 Feb ? 19:19:57 10° W 19:23:33 48° SW 19:23:33 48° SW visible
03 Feb ? 17:53:26 10° WSW 17:57:52 54° S 18:00:48 20° E visible
03 Feb ? 19:34:39 10° W 19:37:45 38° WSW 19:37:45 38° WSW visible
04 Feb ? 18:08:04 10° WSW 18:12:33 58° S 18:15:00 25° ESE visible
04 Feb ? 19:49:25 10° W 19:51:57 28° WSW 19:51:57 28° WSW visible
05 Feb ? 18:22:45 10° W 18:27:12 56° S 18:29:13 30° ESE visible
05 Feb ? 20:04:15 10° W 20:06:10 21° WSW 20:06:10 21° WSW visible
06 Feb ? 18:37:28 10° W 18:41:51 48° SSW 18:43:29 32° SE visible
06 Feb ? 20:19:15 10° W 20:20:26 15° WSW 20:20:26 15° WSW visible
07 Feb ? 17:10:51 10° W 17:15:21 58° S 17:19:47 10° ESE visible
07 Feb ? 18:52:14 10° W 18:56:26 38° SSW 18:57:47 30° SSE visible
08 Feb ? 17:25:32 10° W 17:30:00 54° S 17:34:24 10° ESE visible
08 Feb ? 19:07:05 10° W 19:10:56 28° SSW 19:12:10 24° S visible
09 Feb ? 17:40:15 10° W 17:44:37 45° SSW 17:48:54 10° SE visible
09 Feb ? 19:22:10 10° W 19:25:20 19° SW 19:26:38 17° SSW visible
